Weather History for Jamestown, ND

Change the Weather History Date:

Tuesday, October 18, 2011

  Actual Average Record
Temperature  
Mean Temperature 38 °F 43 °F  
Max Temperature 49 °F 55 °F 84 °F (1914)
Min Temperature 27 °F 32 °F 10 °F (1972)
Degree Days  
Heating Degree Days 27 22  
Month to date heating degree days 186 323  
Since 1 July heating degree days 413 641  
Cooling Degree Days 0 0  
Month to date cooling degree days 17 0  
Year to date cooling degree days 497 445  
Moisture  
Dew Point 25 °F    
Average Humidity 61    
Maximum Humidity 85    
Minimum Humidity 36    
Precipitation  
Precipitation 0.00 in 0.06 in 0.63 in (1994)
Month to date precipitation 0.97 1.00  
Year to date precipitation 21.28 17.19  
Sea Level Pressure  
Sea Level Pressure 30.18 in    
Wind  
Wind Speed 11 mph (NNW)    
Max Wind Speed 23 mph    
Max Gust Speed 28 mph    
Visibility 10 miles    
Events      
T = Trace of Precipitation, MM = Missing Value Source: NWS Daily Summary

Daily Weather History Graph

Daily Weather History Graph

Search for Another Location

Airport:

Trip Planner

Search our weather history database for the weather conditions in past years. The results will help you decide how hot, cold, wet, or windy it might be!

Date:

Astronomy

Oct. 18, 2011 Rise Set
Actual Time 7:56 AM CDT 6:42 PM CDT
Civil Twilight 7:25 AM CDT 7:13 PM CDT
Nautical Twilight 6:50 AM CDT 7:48 PM CDT
Astronomical Twilight 6:15 AM CDT 8:23 PM CDT
Moon 11:12 PM CDT (10/18) 2:02 PM CDT (10/18)
Length of Visible Light 11h 47m
Length of Day
10h 45m
Waning Gibbous, 64% of the Moon is Illuminated
Oct 18
Waning Gibbous
Oct 19
Last Quarter
Oct 26
New
Nov 2
First Quarter
Nov 10
Full

Hourly Weather History & Observations

Time (CDT) Temp. Windchill Dew Point Humidity Pressure Visibility Wind Dir Wind Speed Gust Speed Precip Events Conditions
12:56 AM 37.0 °F 30.4 °F 28.9 °F 73% 30.09 in 10.0 mi NNW 9.2 mph - N/A   Overcast
1:56 AM 33.1 °F 25.5 °F 28.0 °F 82% 30.10 in 10.0 mi NW 9.2 mph - N/A   Clear
2:56 AM 32.0 °F 24.2 °F 27.0 °F 82% 30.12 in 10.0 mi NW 9.2 mph - N/A   Clear
3:56 AM 32.0 °F 23.6 °F 27.0 °F 82% 30.13 in 10.0 mi NW 10.4 mph - N/A   Clear
4:56 AM 30.9 °F 22.2 °F 26.1 °F 82% 30.15 in 10.0 mi NW 10.4 mph - N/A   Clear
5:56 AM 30.0 °F 21.7 °F 26.1 °F 85% 30.17 in 10.0 mi NW 9.2 mph - N/A   Clear
6:56 AM 30.9 °F 22.2 °F 26.1 °F 82% 30.18 in 10.0 mi NW 10.4 mph - N/A   Clear
7:56 AM 30.9 °F 20.7 °F 26.1 °F 82% 30.19 in 10.0 mi NW 13.8 mph - N/A   Clear
8:56 AM 33.1 °F 24.9 °F 26.1 °F 75% 30.20 in 10.0 mi NW 10.4 mph - N/A   Clear
9:56 AM 37.0 °F 28.9 °F 27.0 °F 67% 30.21 in 10.0 mi NW 12.7 mph - N/A   Clear
10:56 AM 41.0 °F 33.5 °F 27.0 °F 57% 30.22 in 10.0 mi NNW 13.8 mph - N/A   Clear
11:56 AM 44.1 °F 36.5 °F 24.1 °F 45% 30.22 in 10.0 mi NNW 17.3 mph 23.0 mph N/A   Clear
12:39 PM 44.6 °F 36.6 °F 24.8 °F 46% 30.17 in 3.0 mi NNW 19.6 mph 25.3 mph N/A   Haze
12:56 PM 46.4 °F 40.4 °F 23.0 °F 40% 30.17 in 10.0 mi North 13.8 mph 23.0 mph N/A   Partly Cloudy
1:56 PM 46.9 °F - 23.0 °F 39% 30.19 in 10.0 mi North 18.4 mph 24.2 mph N/A   Clear
2:56 PM 48.2 °F - 23.0 °F 37% 30.15 in 10.0 mi NNW 17.3 mph 24.2 mph N/A   Clear
3:56 PM 48.9 °F - 23.0 °F 36% 30.18 in 10.0 mi NNW 18.4 mph 23.0 mph N/A   Clear
4:56 PM 48.0 °F - 23.0 °F 37% 30.18 in 10.0 mi North 16.1 mph 24.2 mph N/A   Clear
5:56 PM 46.4 °F 41.5 °F 24.8 °F 43% 30.14 in 10.0 mi North 10.4 mph - N/A   Clear
6:56 PM 39.0 °F 34.8 °F 24.1 °F 55% 30.20 in 10.0 mi North 5.8 mph - N/A   Clear
7:56 PM 35.1 °F 30.1 °F 24.1 °F 64% 30.22 in 10.0 mi NNW 5.8 mph - N/A   Clear
8:56 PM 33.1 °F 27.7 °F 25.0 °F 72% 30.23 in 10.0 mi NNW 5.8 mph - N/A   Clear
9:56 PM 32.0 °F 25.6 °F 24.1 °F 73% 30.23 in 10.0 mi North 6.9 mph - N/A   Clear
10:56 PM 30.0 °F 24.1 °F 23.0 °F 75% 30.25 in 10.0 mi North 5.8 mph - N/A   Clear
11:56 PM 32.0 °F 23.6 °F 23.0 °F 69% 30.25 in 10.0 mi NNE 10.4 mph - N/A   Clear